Lapse_Rate
6.0 6.2 6.1 6.1 6.3 6.5 6.7 6.5 6.3 5.9 5.5 5.4 5.3 5.3 5.6 5.9 5.6 5.4 5.4 5.4 5.6 5.9 6.1 6.1 6.3 6.3 6.1 6.3 6.3 6.6 6.7 6.5 6.5 6.4 6.5 6.6 6.6 6.5 6.4 6.2 6.3 6.3 6.2 6.1 6.1 6.2 6.1 6.0 6.0
6.1 6.1 6.1 6.0 6.4 6.9 6.8 6.4 6.1 6.0 5.6 5.5 5.3 5.2 5.4 5.8 5.6 5.4 5.5 5.3 5.6 5.9 6.0 6.3 6.4 6.1 5.9 6.2 6.2 6.4 6.5 6.5 6.4 6.4 6.5 6.6 6.5 6.5 6.3 6.3 6.3 6.2 6.1 6.1 6.1 6.1 6.1 6.0 6.0
6.0 5.9 5.9 6.0 6.5 6.8 6.3 6.4 6.1 5.9 5.6 5.4 5.3 5.3 5.5 5.7 5.6 5.4 5.5 5.3 5.6 5.9 6.0 6.2 6.0 5.7 6.0 6.1 6.3 6.3 6.5 6.5 6.4 6.4 6.6 6.5 6.5 6.4 6.3 6.3 6.2 6.0 6.0 6.1 6.1 6.1 6.0 6.1 6.1
5.7 5.8 5.7 6.1 6.6 6.6 6.3 6.3 5.9 5.8 5.5 5.3 5.1 5.4 5.5 5.7 5.6 5.4 5.6 5.2 5.4 5.7 6.0 6.0 5.8 5.9 5.9 6.0 6.2 6.5 6.4 6.3 6.4 6.5 6.5 6.5 6.4 6.3 6.2 6.2 6.1 6.2 6.1 6.0 6.1 6.1 6.2 6.2 6.3
5.9 5.7 5.8 6.1 6.5 6.5 6.2 6.3 5.7 5.6 5.2 5.3 5.0 5.0 5.5 5.7 5.6 5.4 5.4 5.2 5.4 5.6 5.9 5.9 5.7 5.8 5.6 5.9 6.1 6.4 6.3 6.2 6.4 6.5 6.4 6.4 6.3 6.2 6.1 6.1 6.1 6.1 6.0 6.1 6.1 6.2 6.3 6.4 6.3
5.9 5.9 6.0 6.5 6.8 6.5 6.2 6.4 6.1 5.3 5.1 5.2 5.0 5.2 5.5 5.8 5.7 5.4 5.5 5.3 5.2 5.5 6.0 5.9 5.8 5.7 5.7 5.6 6.1 6.4 6.3 6.1 6.2 6.3 6.2 6.1 6.0 6.0 6.0 6.0 6.0 6.0 6.0 6.0 6.1 6.2 6.3 6.2 6.2
6.0 5.9 6.1 6.7 6.9 6.4 6.2 6.2 6.0 5.4 5.2 4.9 5.2 4.8 5.6 5.7 5.6 5.4 5.6 5.4 5.0 5.4 5.6 5.8 5.9 5.7 5.6 5.7 5.8 6.2 6.3 6.2 6.0 5.9 5.9 6.0 5.9 5.9 6.0 6.0 6.1 6.0 6.0 6.0 6.1 6.2 6.2 6.1 6.1
6.0 6.0 6.1 6.4 6.8 6.4 6.3 6.1 5.8 5.3 5.0 5.2 5.3 4.9 5.6 5.6 5.5 5.2 5.6 5.3 5.1 5.0 5.5 5.6 5.7 5.8 5.6 5.6 5.5 5.8 6.1 6.0 6.0 6.1 6.0 6.1 5.9 5.9 6.0 6.1 6.2 6.2 6.2 6.2 6.2 6.3 6.3 6.3 6.2
6.1 6.0 6.3 6.5 6.5 6.3 6.3 6.2 5.9 5.8 5.6 5.4 5.3 5.4 5.6 5.6 5.5 5.4 5.3 5.3 5.5 4.9 5.1 5.3 5.5 5.6 5.8 5.7 5.7 5.9 6.1 6.1 6.1 6.1 6.1 6.0 5.9 5.9 6.0 6.0 6.1 6.2 6.3 6.2 6.3 6.4 6.3 6.3 6.3
5.9 5.9 6.2 6.4 6.4 6.0 6.3 6.1 5.9 5.9 5.8 5.5 5.4 5.6 5.5 5.5 5.5 5.6 5.3 5.1 5.3 5.2 4.8 5.1 5.3 5.4 5.7 5.9 5.7 6.0 5.9 6.0 6.2 6.4 6.4 6.1 5.9 5.9 6.0 6.1 6.2 6.3 6.3 6.2 6.4 6.4 6.4 6.3 6.4
5.7 5.9 6.1 5.9 6.2 6.1 6.2 6.1 6.2 6.0 5.6 5.2 5.3 5.5 5.5 5.3 5.5 5.5 5.2 4.9 4.7 5.0 4.9 5.0 5.2 5.2 5.3 5.4 5.4 6.0 5.9 6.1 6.2 6.4 6.5 6.3 6.2 6.1 6.2 6.4 6.5 6.4 6.5 6.5 6.5 6.5 6.3 6.3 6.3
5.8 6.0 6.0 5.7 6.0 6.0 6.0 6.2 6.2 6.1 5.7 5.4 5.2 5.9 5.4 5.3 5.4 5.4 5.2 5.0 4.7 4.8 5.0 4.7 4.7 5.3 5.2 4.9 5.0 5.7 6.0 6.3 6.4 6.5 6.4 6.3 6.3 6.5 6.4 6.4 6.4 6.4 6.3 6.3 6.3 6.2 6.3 6.2 6.2
5.4 5.9 5.8 5.3 5.7 5.9 5.9 6.0 6.2 6.2 5.9 5.8 5.6 5.7 5.6 5.5 5.4 5.4 5.3 5.1 5.0 4.8 4.8 4.7 4.8 5.5 5.4 5.2 5.3 5.2 5.6 6.1 6.4 6.6 6.6 6.5 6.4 6.4 6.5 6.5 6.5 6.5 6.5 6.5 6.5 6.5 6.4 6.3 6.2
5.8 5.8 5.4 5.2 5.4 5.7 5.7 5.8 6.0 6.0 6.0 5.9 5.8 5.8 5.7 5.4 5.5 5.7 5.5 5.3 5.4 5.3 5.1 5.1 5.0 5.5 5.6 5.4 5.6 5.7 5.9 6.0 6.2 6.5 6.6 6.5 6.5 6.6 6.4 6.3 6.5 6.5 6.5 6.5 6.4 6.4 6.3 6.2 6.1
5.5 5.6 5.1 5.1 5.5 5.5 5.6 5.6 5.9 6.1 5.8 6.0 6.0 6.0 5.9 5.7 5.8 5.5 5.6 5.6 5.7 5.5 5.4 5.3 5.3 5.6 6.0 5.8 5.7 5.8 6.2 6.5 6.6 6.4 6.2 6.3 6.4 6.4 6.4 6.4 6.5 6.5 6.6 6.7 6.7 6.5 6.4 6.3 6.1
5.4 5.2 4.6 5.3 5.3 5.4 5.3 6.0 5.7 5.8 5.8 6.1 6.1 6.1 6.2 6.1 6.0 5.7 5.6 5.7 5.7 5.7 5.6 5.4 5.3 5.7 5.9 6.2 5.9 5.9 6.1 6.6 6.9 6.9 6.9 6.7 6.6 6.5 6.6 6.6 6.6 6.6 6.6 6.6 6.6 6.4 6.3 6.2 6.2
4.9 4.5 4.5 5.1 5.5 5.4 5.6 5.7 5.7 5.7 5.7 5.9 5.9 6.1 6.3 6.2 6.3 6.1 6.0 5.9 5.9 5.8 5.6 5.5 5.7 6.0 6.0 6.3 6.3 6.6 6.6 6.5 6.7 6.9 6.9 6.8 6.6 6.6 6.7 6.7 6.7 6.6 6.6 6.6 6.5 6.4 6.3 6.2 6.1
4.5 4.6 4.6 5.2 5.8 5.5 5.6 5.7 5.7 5.8 5.7 5.6 5.7 5.8 6.3 6.4 6.5 6.4 6.3 6.0 5.9 6.0 6.0 5.9 5.8 6.0 6.3 6.4 6.7 6.9 7.0 7.0 6.9 6.7 6.7 6.7 6.7 6.7 6.7 6.7 6.6 6.6 6.4 6.5 6.4 6.4 6.3 6.2 6.2
5.2 5.1 5.4 5.4 5.3 5.3 5.4 5.4 5.9 5.8 5.6 5.7 5.7 5.7 5.8 6.7 6.6 6.5 6.6 6.6 6.4 6.3 6.4 6.7 6.5 6.5 6.6 6.7 6.9 7.0 7.0 6.8 6.8 6.8 6.8 6.9 6.9 6.9 6.9 6.7 6.5 6.5 6.5 6.5 6.5 6.5 6.4 6.3 6.1
5.3 4.9 5.1 5.7 5.3 5.4 5.3 5.2 5.3 5.3 5.6 5.4 6.0 5.9 6.0 6.2 6.6 6.8 6.9 6.8 6.9 7.1 6.8 6.9 7.0 6.8 6.9 7.0 6.9 7.0 6.8 6.8 6.7 7.0 7.1 7.2 7.0 6.7 6.7 6.6 6.6 6.6 6.6 6.6 6.5 6.5 6.4 6.3 6.0
5.2 5.3 5.7 5.7 5.2 5.2 5.4 5.2 5.5 5.6 5.8 5.9 6.1 6.1 6.1 5.9 6.5 6.7 7.2 7.2 7.2 7.2 7.4 7.3 7.2 7.0 7.1 7.0 6.9 7.0 7.0 7.1 7.1 7.1 7.0 6.9 6.8 6.8 6.8 6.7 6.6 6.6 6.5 6.5 6.6 6.5 6.4 6.3 6.1
5.3 5.5 5.6 5.6 5.1 5.1 4.6 4.5 5.7 5.8 5.9 6.0 6.4 6.4 6.3 6.4 6.5 6.8 7.1 7.5 8.0 7.7 7.5 7.4 7.3 7.1 7.0 6.9 6.9 7.0 7.0 7.0 7.1 7.0 6.8 6.8 6.9 7.0 6.8 6.8 6.6 6.6 6.6 6.5 6.5 6.5 6.3 6.2 6.1
5.6 5.3 5.5 5.5 4.9 5.1 4.9 4.5 5.3 5.8 5.9 6.5 6.3 6.5 6.7 6.6 6.5 6.5 6.4 7.3 7.6 7.7 7.7 7.6 7.3 7.2 7.1 7.1 7.0 7.0 7.0 7.0 6.9 6.7 6.7 6.7 6.7 6.7 6.6 6.4 6.6 6.6 6.5 6.5 6.4 6.3 6.1 6.0 5.9
5.4 5.4 5.3 5.1 5.0 4.3 4.7 4.6 4.6 5.4 6.2 6.7 6.6 6.5 6.4 6.7 6.5 6.5 6.4 6.4 6.8 7.4 7.6 7.5 7.5 7.5 7.3 7.2 7.2 7.1 7.1 7.0 6.9 6.9 6.8 6.8 6.8 6.5 6.6 6.4 6.3 6.3 6.4 6.3 6.4 6.3 6.2 6.0 5.8
5.4 5.4 4.8 5.1 4.7 4.4 5.4 5.0 4.3 5.6 6.4 6.4 6.2 6.3 6.6 6.7 6.8 6.7 6.7 6.5 6.5 6.6 7.4 7.4 7.3 7.3 7.3 7.2 7.2 7.2 7.1 7.0 6.9 6.8 6.8 6.9 6.8 6.6 6.6 6.3 6.2 6.3 6.3 6.3 6.2 6.2 6.1 6.0 5.9
5.1 5.1 5.4 4.6 4.3 4.6 5.5 5.0 4.8 6.0 6.3 6.7 6.6 6.6 6.6 6.5 6.6 6.9 6.8 6.4 6.3 6.5 6.5 6.5 6.6 6.9 7.0 7.1 7.2 7.1 7.0 6.8 6.9 6.9 6.8 6.9 6.9 6.6 6.5 6.5 6.5 6.2 6.1 6.2 6.3 6.0 6.0 6.0 5.7
4.8 5.1 5.6 5.3 5.1 4.9 5.3 5.3 5.6 5.7 6.3 6.5 6.7 6.5 6.7 6.9 6.8 7.0 6.9 6.6 6.5 6.4 6.2 6.2 6.2 6.3 6.3 6.5 6.7 6.8 6.8 6.9 6.9 6.9 6.7 6.9 7.1 6.8 6.6 6.4 6.2 6.3 6.2 6.2 6.3 6.2 5.8 6.0 5.8
5.1 5.0 4.9 5.4 4.0 4.1 5.5 5.7 6.0 6.0 6.5 6.5 6.5 6.6 6.9 7.3 7.4 6.9 6.8 6.9 6.8 6.8 6.7 6.6 6.6 6.6 6.6 6.3 6.4 6.5 6.7 6.8 6.8 6.7 6.8 6.8 6.9 7.2 6.5 6.2 6.1 6.1 6.1 6.1 6.0 6.2 5.9 5.7 5.7
4.6 4.5 5.1 5.3 5.6 4.3 4.1 5.8 6.2 6.2 6.4 6.5 6.8 6.9 7.0 7.0 7.3 7.4 7.2 7.0 7.0 7.2 7.3 7.0 6.8 6.9 6.8 6.7 6.6 6.6 6.8 7.0 6.9 6.8 6.7 6.7 6.9 7.1 6.8 6.2 6.1 6.1 6.0 5.8 5.5 5.4 5.6 5.6 5.7
5.1 5.0 5.3 5.5 5.0 5.3 5.0 5.6 6.3 6.5 6.6 6.5 6.7 6.8 6.9 7.1 7.0 6.9 7.0 7.1 7.1 7.0 6.9 6.8 6.9 7.1 7.1 7.1 7.0 7.0 7.0 7.1 7.5 7.5 7.3 7.1 6.9 6.8 6.7 6.3 6.3 6.3 6.1 5.5 5.5 5.6 5.1 5.3 5.5
Wind_Speed
19 15 4 3 1 3 5 4 4 7 5 3 8 6 10 10 4 6 6 13 18 15 16 15 15 13 13 11 12 13 15 17 17 17 19 21 20 22 20 18 18 19 19 20 20 20 20 20 19
10 9 1 3 2 4 3 7 2 10 6 8 5 3 6 5 5 6 5 7 20 16 17 16 15 14 14 12 12 13 16 18 17 15 17 20 21 21 19 18 17 17 18 20 20 19 19 19 18
6 8 2 2 3 4 4 3 11 9 5 5 4 6 5 4 7 8 11 12 15 15 20 17 15 15 13 13 13 14 15 17 16 16 18 19 20 19 18 17 16 16 18 18 19 19 17 17 16
4 2 3 3 8 4 5 6 12 7 1 5 6 8 5 8 4 2 13 14 10 16 19 16 15 13 12 12 14 13 11 16 20 19 18 17 17 18 17 16 15 15 17 17 17 17 17 16 15
1 4 3 5 9 5 4 5 2 7 8 6 2 6 5 5 4 4 12 12 12 14 18 14 14 11 13 12 13 12 11 17 19 19 17 16 16 16 15 15 15 15 16 15 15 14 15 14 14
3 2 3 6 8 6 3 4 3 6 6 6 2 7 4 5 7 6 14 12 14 13 17 15 14 13 16 15 15 13 13 17 22 18 16 15 14 14 14 14 14 14 14 13 14 14 12 12 12
2 3 5 10 2 5 5 3 3 5 5 5 3 5 5 4 8 6 9 13 14 13 17 15 15 16 17 16 18 17 17 18 19 19 16 15 14 14 14 13 12 12 11 11 12 11 11 11 10
1 3 7 8 2 1 6 3 8 3 5 2 6 3 6 10 9 6 10 10 11 11 13 14 15 16 16 16 17 17 18 20 18 19 17 16 14 13 13 12 11 10 10 9 8 7 8 8 8
5 2 4 8 5 3 6 4 3 3 5 2 3 6 10 14 9 11 9 6 5 8 8 14 15 16 17 16 17 17 18 19 18 16 17 17 13 13 10 11 9 9 9 8 6 4 3 3 4
3 4 8 5 6 5 4 3 8 3 6 4 7 11 13 13 12 13 11 9 5 6 8 10 12 14 18 14 15 16 18 18 15 12 12 6 13 14 10 9 8 7 6 6 4 1 2 5 5
5 8 7 5 6 3 4 3 1 4 5 6 12 13 13 16 11 11 11 10 8 6 5 7 9 9 15 15 14 15 16 16 17 14 7 13 12 13 12 10 9 6 6 4 3 1 4 6 8
3 10 9 6 2 2 5 3 2 5 1 4 4 18 15 13 13 14 13 12 12 8 7 6 9 6 12 14 16 15 11 11 9 10 8 9 11 9 10 10 8 6 4 3 1 5 1 3 3
9 8 8 9 5 3 2 4 3 4 4 6 13 16 15 15 14 10 12 13 9 10 7 6 8 8 12 8 9 16 14 13 12 11 9 10 9 6 5 7 7 5 3 3 2 3 0 1 2
7 11 4 6 6 3 4 4 1 2 3 8 11 10 12 12 16 9 11 13 13 12 9 7 6 9 11 11 8 9 15 16 16 14 12 8 11 9 8 6 6 5 2 3 4 4 3 4 2
1 6 4 6 5 5 3 7 6 9 4 7 8 10 11 12 15 13 10 9 11 13 12 9 7 9 4 12 11 9 13 12 13 16 18 12 10 10 9 8 6 5 6 2 2 4 2 5 7
3 3 6 8 8 4 5 10 7 10 9 8 10 8 11 12 13 13 10 10 9 9 14 13 8 7 7 10 14 14 12 12 11 11 14 13 11 12 8 7 6 8 6 5 3 2 2 1 2
3 4 8 5 14 6 8 1 11 8 7 7 8 9 10 11 13 14 9 9 11 10 10 14 13 11 7 10 14 14 17 15 17 15 16 15 12 10 9 5 6 8 2 2 2 0 2 1 3
5 6 6 12 7 11 7 7 9 2 6 7 7 8 10 9 13 11 10 9 9 11 10 12 12 12 11 8 9 9 10 12 16 16 18 20 15 12 9 7 9 8 4 3 3 3 3 2 2
10 11 11 8 7 6 8 9 11 9 8 8 7 8 9 13 10 10 9 10 9 11 11 12 13 14 11 7 5 4 5 4 3 15 20 19 20 18 15 12 10 12 5 5 6 2 2 2 2
6 11 11 4 7 3 6 10 9 10 9 8 11 10 8 8 10 13 12 12 13 12 14 13 14 13 12 9 7 4 4 4 5 9 13 18 19 19 16 13 9 10 4 5 5 4 2 2 2
10 10 9 6 4 2 5 9 10 9 9 9 9 9 9 9 10 11 16 17 13 16 16 15 15 15 13 12 7 4 5 5 4 4 4 10 17 19 18 17 12 10 8 4 5 5 6 3 1
17 4 5 5 3 2 2 5 4 5 17 15 13 9 9 10 8 10 16 16 18 17 13 15 14 15 14 14 11 13 11 9 7 7 6 10 18 18 19 19 16 13 10 6 5 5 3 3 4
3 9 5 4 4 4 4 3 4 6 5 7 16 12 12 11 11 12 14 18 16 15 16 15 15 15 15 16 15 12 11 8 7 5 7 9 13 17 19 18 16 11 10 8 6 5 5 3 3
12 10 8 5 3 5 7 7 5 6 8 5 6 12 15 13 11 10 9 9 12 12 13 13 15 16 16 16 17 15 15 11 8 9 8 8 5 6 12 13 13 14 10 8 7 8 6 5 4
6 10 3 2 3 7 5 9 11 10 11 3 4 5 7 12 11 10 10 9 11 15 15 14 15 17 16 16 16 18 15 15 14 12 11 8 7 5 9 12 8 7 8 11 12 6 6 6 5
13 13 5 7 5 4 2 7 5 14 5 4 5 8 4 5 3 9 10 9 9 10 11 12 14 16 16 16 17 15 16 10 11 12 9 9 9 9 11 14 14 14 15 13 13 6 4 6 5
4 6 3 5 1 3 5 6 7 7 8 6 8 6 7 6 5 1 5 8 8 9 10 10 9 11 10 15 14 14 13 15 13 14 9 10 10 7 9 15 11 14 14 14 12 5 6 7 5
9 10 4 2 6 5 5 5 5 6 10 10 9 7 5 3 5 2 0 2 3 6 7 9 10 11 10 9 11 12 14 14 14 9 10 12 10 8 10 10 9 11 12 13 10 6 5 8 5
8 8 5 5 2 4 0 5 2 9 9 8 8 7 6 7 5 4 3 1 3 3 4 6 7 8 8 9 9 9 9 9 7 9 7 7 7 9 9 10 9 10 10 10 9 8 9 10 8
8 12 6 5 5 3 3 5 3 8 8 9 8 7 6 6 4 2 3 4 4 6 6 7 7 8 8 7 7 7 7 7 7 6 6 6 8 8 9 9 9 10 10 12 11 12 11 11 11
Wind_Direction
318 302 299 317 308 203 257 99 38 106 99 59 35 23 99 46 18 109 170 115 124 112 124 111 104 100 101 97 95 97 103 110 102 96 97 95 92 85 81 77 78 77 76 75 71 72 74 74 73
318 307 292 270 265 285 62 95 131 78 97 92 94 334 57 84 62 111 109 114 113 129 129 116 116 111 108 107 100 104 102 105 104 102 96 90 87 89 85 76 79 81 80 74 70 72 75 73 71
280 293 289 218 225 283 71 64 93 87 116 145 107 30 35 79 129 156 112 109 117 120 107 124 121 114 109 106 98 100 107 108 103 103 87 88 83 84 85 80 78 79 81 76 74 73 75 72 67
323 301 274 287 263 75 42 45 110 113 54 347 100 93 78 21 95 195 109 123 109 113 109 120 118 115 122 116 117 115 126 116 97 94 90 92 89 90 85 83 81 83 83 79 76 75 75 72 67
243 264 241 223 263 90 76 55 110 171 156 159 264 126 79 80 117 205 130 143 120 106 114 118 118 122 135 116 103 92 106 110 100 95 96 94 95 95 92 87 86 89 86 81 78 77 74 71 66
287 236 270 233 226 95 119 93 246 181 119 81 208 106 102 98 168 185 141 105 121 116 118 125 113 99 122 122 104 98 89 112 107 99 101 103 101 100 95 91 89 91 90 85 82 79 79 73 63
254 225 258 291 322 130 135 136 202 148 159 154 19 106 106 165 154 194 119 118 121 121 125 130 125 109 109 110 109 100 91 101 100 102 100 101 96 94 93 93 95 96 95 88 79 77 76 72 62
271 258 225 263 292 139 96 131 350 87 75 50 14 128 161 175 153 141 111 129 131 137 139 145 137 137 118 110 113 109 101 110 109 108 107 102 103 104 105 94 95 97 96 89 82 77 75 74 66
334 295 246 229 270 67 118 146 342 318 116 16 61 36 117 144 168 123 114 107 138 155 147 150 157 150 134 123 121 116 117 120 119 125 135 134 139 112 96 101 102 104 102 97 88 81 89 91 90
124 275 254 70 39 50 89 271 137 179 158 154 107 87 114 147 162 144 140 143 183 182 149 160 170 155 148 138 146 134 134 141 141 153 171 178 104 121 120 123 123 124 121 111 101 80 335 286 258
193 234 249 53 88 65 53 260 78 201 236 188 167 142 145 166 170 159 163 157 184 183 111 144 160 169 140 148 162 150 167 175 165 182 158 115 124 137 142 149 153 156 179 187 197 304 41 34 29
252 239 254 115 124 153 184 57 255 223 217 40 81 148 149 175 180 178 185 170 186 177 157 158 161 181 158 169 149 173 160 155 157 155 160 150 168 178 174 171 164 194 155 151 30 109 77 11 26
227 258 255 103 152 112 122 191 310 277 253 117 110 140 156 178 188 198 186 165 173 161 174 175 156 213 162 157 178 159 164 165 172 156 170 180 154 181 169 158 176 150 187 152 156 111 126 314 50
201 228 148 153 166 177 231 210 146 187 240 124 132 150 157 179 190 215 189 177 171 163 170 183 169 206 171 164 176 166 158 176 157 169 178 181 166 178 161 178 173 178 165 114 64 50 354 307 204
52 208 117 165 220 226 226 255 201 257 102 164 178 165 161 177 189 209 201 180 173 165 165 192 176 198 236 171 162 172 173 167 174 174 175 183 179 183 175 180 174 182 127 130 210 263 288 335 8
208 231 172 201 204 189 174 248 278 217 152 211 188 193 162 175 187 214 201 176 179 162 169 179 188 191 216 178 163 182 177 166 193 185 171 185 194 176 193 175 193 146 165 199 214 64 320 321 310
249 183 215 216 200 164 197 304 232 241 161 219 219 188 166 170 186 212 183 178 185 168 179 175 184 196 205 189 177 188 171 185 190 183 181 192 192 197 187 188 133 141 152 95 101 253 225 348 3
153 208 203 217 188 202 210 230 280 199 171 209 253 212 167 181 192 199 171 190 180 170 181 176 181 190 204 206 182 187 175 195 189 184 186 183 185 201 197 177 167 163 175 200 206 215 221 206 98
189 181 186 231 181 161 228 248 241 232 199 198 235 262 193 179 190 182 178 186 189 174 184 180 175 186 193 197 187 183 193 187 214 192 191 180 182 191 194 195 194 190 187 196 202 228 222 158 79
256 197 209 282 121 147 268 263 238 223 237 210 201 219 236 189 178 175 182 204 192 189 185 182 188 190 193 191 195 184 182 197 201 197 192 180 184 191 193 195 201 201 190 199 195 201 187 110 87
217 199 209 208 134 208 279 272 234 246 227 228 230 196 202 217 193 180 186 197 205 200 189 187 188 189 194 193 186 193 179 187 183 196 190 195 194 195 197 200 200 201 199 201 193 199 189 160 131
202 150 70 93 102 209 11 289 270 235 227 221 222 210 210 210 203 193 188 195 199 200 197 195 190 191 194 191 191 196 199 199 199 194 190 195 198 198 197 196 200 201 201 204 194 178 189 161 163
174 140 110 72 84 32 200 272 270 224 267 251 217 214 210 209 206 205 198 200 198 195 199 194 194 195 194 193 197 195 201 201 194 178 188 202 204 201 198 198 196 197 192 181 165 170 201 177 144
130 95 59 45 53 257 197 219 245 213 229 239 224 208 217 213 215 207 214 191 199 195 201 202 198 202 198 198 200 203 202 202 195 198 199 196 188 189 193 196 191 187 175 176 174 170 178 167 145
140 153 109 178 204 239 139 213 240 275 282 276 276 280 261 206 202 200 194 191 193 200 202 202 204 209 203 200 200 205 207 204 203 203 205 176 178 184 197 185 183 179 174 167 165 165 150 158 154
167 176 162 176 193 205 243 236 250 221 219 228 242 255 250 339 250 197 195 199 197 201 207 210 208 211 206 205 208 207 210 209 209 208 200 191 197 201 192 192 182 175 171 167 160 154 144 145 152
182 188 36 97 101 64 202 248 288 232 241 232 240 242 254 228 254 205 192 185 183 190 197 204 210 225 217 213 212 210 209 213 212 212 203 197 190 185 178 184 182 172 168 163 153 151 154 141 145
181 147 133 259 153 217 243 231 226 194 221 225 243 206 213 153 126 120 63 293 269 213 205 196 197 202 210 218 217 218 213 214 217 210 205 197 184 165 169 176 178 171 167 154 145 146 149 137 136
157 186 192 131 200 176 114 255 253 200 178 160 102 82 87 87 72 62 54 29 236 244 227 223 215 210 210 210 213 213 214 213 204 215 204 186 150 158 169 175 177 177 167 162 152 154 155 149 152
186 172 168 169 208 237 125 259 123 97 88 102 102 94 89 97 117 143 202 212 228 235 238 231 223 214 215 206 212 223 200 186 197 184 155 146 156 162 170 171 176 179 176 165 167 165 165 164 164